IZ3MEZ-13 Weather Reports


Display with metric or nautical units.
time (UTC)temp
F
wind
direction
speed
MPH
gust
MPH
rain 1hr
in
rain 24hr
in
rain mn
in
humidity
%
barometer
mb
20260906083521 82 358 0.0 1.0 0.00 0.00 0.00 61 1024.8
20260906082518 81 0.0 0.0 0.00 0.00 0.00 62 1024.8
20260906081521 80 355 0.0 1.0 0.00 0.00 0.00 63 1024.7
20260906080518 80 23 0.0 2.0 0.00 0.00 0.00 65 1024.8
20260906075519 79 14 0.0 1.0 0.00 0.00 0.00 65 1024.6
20260906074516 78 0.0 0.0 0.00 0.00 0.00 67 1024.6
20260906073531 78 341 0.0 1.0 0.00 0.00 0.00 68 1024.4
20260906072520 77 12 0.0 2.0 0.00 0.00 0.00 70 1024.4
20260906071523 76 289 0.0 1.0 0.00 0.00 0.00 72 1024.4
20260906070516 76 0.0 0.0 0.00 0.00 0.00 73 1024.3
20260906065522 75 0.0 0.0 0.00 0.00 0.00 75 1024.3
20260906064519 74 0.0 0.0 0.00 0.00 0.00 76 1024.2
20260906063518 73 38 0.0 1.0 0.00 0.00 0.00 78 1023.9
20260906062521 73 0.0 0.0 0.00 0.00 0.00 80 1024.0
20260906061530 72 0.0 0.0 0.00 0.00 0.00 81 1024.0
20260906060519 71 0.0 0.0 0.00 0.00 0.00 82 1023.7
20260906055522 70 0.0 0.0 0.00 0.00 0.00 84 1023.6
20260906054521 69 0.0 0.0 0.00 0.00 0.00 85 1023.5
20260906053520 68 0.0 0.0 0.00 0.00 0.00 86 1023.6
20260906052519 67 0.0 0.0 0.00 0.00 0.00 85 1023.3
20260906051515 67 0.0 0.0 0.00 0.00 0.00 85 1023.2
20260906050520 68 0.0 0.0 0.00 0.00 0.00 84 1023.1
20260906045525 68 0.0 0.0 0.00 0.00 0.00 83 1023.0
20260906044518 68 0.0 0.0 0.00 0.00 0.00 83 1022.9
20260906043521 69 0.0 0.0 0.00 0.00 0.00 82 1022.8
20260906042518 70 0.0 0.0 0.00 0.00 0.00 81 1022.6
20260906041519 70 0.0 0.0 0.00 0.00 0.00 81 1022.6
20260906040524 70 0.0 0.0 0.00 0.00 0.00 81 1022.5
20260906035531 70 15 0.0 2.0 0.00 0.00 0.00 81 1022.4
20260906034518 70 0.0 0.0 0.00 0.00 0.00 82 1022.3
20260906033526 70 0.0 0.0 0.00 0.00 0.00 82 1022.2
20260906032515 70 0.0 0.0 0.00 0.00 0.00 83 1022.2
20260906031522 70 0.0 0.0 0.00 0.00 0.00 84 1022.3
20260906030517 70 0.0 0.0 0.00 0.00 0.00 84 1022.4
20260906025518 71 0.0 0.0 0.00 0.00 0.00 86 1022.3
20260906024523 69 0.0 0.0 0.00 0.00 0.00 87 1022.3
20260906023530 69 0.0 0.0 0.00 0.00 0.00 87 1022.3
20260906022519 69 0.0 0.0 0.00 0.00 0.00 87 1022.2
20260906021516 70 0.0 0.0 0.00 0.00 0.00 87 1022.2
20260906020529 70 0.0 0.0 0.00 0.00 0.00 86 1022.2
20260906015522 71 0.0 0.0 0.00 0.00 0.00 86 1022.1
20260906014519 72 0.0 0.0 0.00 0.00 0.00 86 1022.0
20260906013516 72 0.0 0.0 0.00 0.00 0.00 87 1022.0
20260906012522 72 0.0 0.0 0.00 0.00 0.00 88 1021.9
20260906011519 72 0.0 0.0 0.00 0.00 0.00 90 1021.8
20260906010518 72 0.0 0.0 0.00 0.00 0.00 89 1021.9
20260906005523 72 0.0 0.0 0.00 0.00 0.00 89 1021.8
20260906004528 72 0.0 0.0 0.00 0.00 0.00 89 1021.8
20260906003519 72 0.0 0.0 0.00 0.00 0.00 89 1021.9
20260906002520 73 0.0 0.0 0.00 0.00 0.00 88 1022.0
20260906001519 73 0.0 0.0 0.00 0.00 0.00 89 1022.0
20260906000520 74 0.0 0.0 0.00 0.00 0.00 89 1021.9
20260905235527 74 0.0 0.0 0.00 0.00 0.00 89 1021.8
20260905234516 74 0.0 0.0 0.00 0.00 0.00 90 1021.8
20260905233523 74 0.0 0.0 0.00 0.00 0.00 91 1021.7
20260905232526 74 0.0 0.0 0.00 0.00 0.00 91 1021.6
20260905231519 74 0.0 0.0 0.00 0.00 0.00 91 1021.7
20260905230519 74 0.0 0.0 0.00 0.00 0.00 91 1021.7
20260905225522 74 0.0 0.0 0.00 0.00 0.00 92 1021.5
20260905224519 74 0.0 0.0 0.00 0.00 0.00 92 1021.5
20260905223526 74 0.0 0.0 0.00 0.00 0.00 92 1021.5
20260905222517 0 0.0 0.0 0.00 0.00 0.00
20260905221520 0 0.0 0.0 0.00 0.00 0.00
20260905220527 0 0.0 0.0 0.00 0.00 0.00
20260905215516 0 0.0 0.0 0.00 0.00 0.00
20260905214522 0 0.0 0.0 0.00 0.00 0.00
20260905213521 0 0.0 0.0 0.00 0.00 0.00
20260905212518 0 0.0 0.0 0.00 0.00 0.00
20260905211521 0 0.0 0.0 0.00 0.00 0.00
20260905210522 0 0.0 0.0 0.00 0.00 0.00
20260905205519 0 0.0 0.0 0.00 0.00 0.00
20260905204526 0 0.0 0.0 0.00 0.00 0.00
20260905203523 0 0.0 0.0 0.00 0.00 0.00
20260905202522 0 0.0 0.0 0.00 0.00 0.00
20260905201519 75 0.0 0.0 0.00 0.00 0.00 88 1020.4
20260905200516 75 0.0 0.0 0.00 0.00 0.00 88 1020.4
20260905195521 75 0.0 0.0 0.00 0.00 0.00 87 1020.3
20260905194528 76 0.0 0.0 0.00 0.00 0.00 87 1020.0
20260905193517 76 0.0 0.0 0.00 0.00 0.00 86 1019.7
20260905192518 76 0.0 0.0 0.00 0.00 0.00 85 1019.8
20260905191521 76 0.0 0.0 0.00 0.00 0.00 85 1019.6
20260905190532 77 0.0 0.0 0.00 0.00 0.00 84 1019.5
20260905185517 77 0.0 0.0 0.00 0.00 0.00 83 1019.5
20260905184528 78 0.0 0.0 0.00 0.00 0.00 82 1019.3
20260905183517 78 0.0 0.0 0.00 0.00 0.00 81 1019.1
20260905182526 79 0.0 0.0 0.00 0.00 0.00 80 1018.9
20260905181515 79 0.0 0.0 0.00 0.00 0.00 78 1018.8
20260905180518 80 0.0 0.0 0.00 0.00 0.00 76 1018.8
20260905175522 81 0.0 0.0 0.00 0.00 0.00 75 1018.6
20260905174540 82 0.0 0.0 0.00 0.00 0.00 73 1018.4
20260905173537 83 0.0 0.0 0.00 0.00 0.00 70 1018.3
20260905172526 85 0.0 0.0 0.00 0.00 0.00 68 1018.2
20260905171519 86 0.0 0.0 0.00 0.00 0.00 65 1018.2
20260905170524 87 0.0 0.0 0.00 0.00 0.00 61 1018.0
20260905165521 89 0.0 0.0 0.00 0.00 0.00 57 1018.0
20260905164520 92 0.0 0.0 0.00 0.00 0.00 53 1017.9
20260905163527 96 0.0 0.0 0.00 0.00 0.00 47 1017.7
20260905162516 99 0.0 0.0 0.00 0.00 0.00 45 1017.8
20260905161523 100 0.0 0.0 0.00 0.00 0.00 45 1017.8
20260905160516 100 0.0 0.0 0.00 0.00 0.00 44 1017.8
20260905155519 101 0.0 0.0 0.00 0.00 0.00 43 1017.6
20260905154523 102 0.0 0.0 0.00 0.00 0.00 41 1017.7
20260905153520 103 0.0 0.0 0.00 0.00 0.00 40 1017.5
20260905152519 104 0.0 0.0 0.00 0.00 0.00 40 1017.5
20260905151520 104 0.0 0.0 0.00 0.00 0.00 41 1017.6
20260905150518 103 0.0 0.0 0.00 0.00 0.00 40 1017.5
20260905145523 103 0.0 0.0 0.00 0.00 0.00 41 1017.7
20260905144524 103 0.0 0.0 0.00 0.00 0.00 40 1017.6
20260905143517 101 0.0 0.0 0.00 0.00 0.00 42 1017.7
20260905142522 101 0.0 0.0 0.00 0.00 0.00 42 1017.6
20260905141521 102 0.0 0.0 0.00 0.00 0.00 42 1017.8
20260905140518 100 203 0.0 3.0 0.00 0.00 0.00 43 1017.7
20260905135521 101 216 0.0 3.0 0.00 0.00 0.00 44 1017.8
20260905134530 100 0.0 0.0 0.00 0.00 0.00 46 1018.0
20260905133519 98 0.0 0.0 0.00 0.00 0.00 47 1017.9
20260905132521 98 241 0.0 3.0 0.00 0.00 0.00 47 1018.1
20260905131518 97 0.0 0.0 0.00 0.00 0.00 49 1018.3
20260905130519 97 0.0 0.0 0.00 0.00 0.00 50 1018.3
20260905125520 96 0.0 0.0 0.00 0.00 0.00 50 1018.3
20260905124517 95 210 0.0 1.0 0.00 0.00 0.00 52 1018.5
20260905123520 95 205 0.0 1.0 0.00 0.00 0.00 52 1018.6
20260905122517 95 224 0.0 2.0 0.00 0.00 0.00 53 1018.8
20260905121518 95 230 0.0 4.0 0.00 0.00 0.00 53 1018.8
20260905120519 95 239 0.0 3.0 0.00 0.00 0.00 53 1018.8
20260905115528 95 0.0 0.0 0.00 0.00 0.00 53 1018.9
20260905114521 95 225 0.0 2.0 0.00 0.00 0.00 53 1018.8
20260905113522 94 215 0.0 1.0 0.00 0.00 0.00 54 1018.9
20260905112518 93 231 0.0 2.0 0.00 0.00 0.00 53 1018.9
20260905111521 93 243 0.0 2.0 0.00 0.00 0.00 55 1018.9
20260905110522 93 0.0 0.0 0.00 0.00 0.00 56 1019.0
20260905105517 92 0.0 0.0 0.00 0.00 0.00 59 1019.0
20260905104518 88 0.0 0.0 0.00 0.00 0.00 64 1019.1
20260905103529 88 0.0 0.0 0.00 0.00 0.00 67 1019.1
20260905102518 87 0.0 0.0 0.00 0.00 0.00 68 1019.0
20260905101519 86 0.0 0.0 0.00 0.00 0.00 68 1019.1
20260905100516 86 0.0 0.0 0.00 0.00 0.00 69 1019.1
20260905095520 87 0.0 0.0 0.00 0.00 0.00 69 1019.2
20260905094525 87 0.0 0.0 0.00 0.00 0.00 69 1019.3
20260905093526 87 0.0 0.0 0.00 0.00 0.00 70 1019.2
20260905092521 85 0.0 0.0 0.00 0.00 0.00 72 1019.2
20260905091526 85 339 0.0 1.0 0.00 0.00 0.00 72 1019.2
20260905090517 84 0.0 0.0 0.00 0.00 0.00 75 1019.2
20260905085520 84 33 0.0 2.0 0.00 0.00 0.00 75 1019.1
20260905084525 84 0.0 0.0 0.00 0.00 0.00 75 1018.8